State University, AR

2:49 PM CST on February 12, 2016 (GMT -0600)
Jonesboro Municipal

Weather History for KJBR - January, 2015

Change the Weather History Date:

Wednesday, January 14, 2015

  Actual Average Record
Temperature  
Mean Temperature 28 °F 37 °F  
Max Temperature 36 °F 46 °F 76 °F (1907)
Min Temperature 20 °F 29 °F 5 °F (1982)
Degree Days  
Heating Degree Days 37 28  
Month to date heating degree days 484 392  
Since 1 July heating degree days 1930 1834  
Cooling Degree Days 0 0  
Month to date cooling degree days 0 0  
Year to date cooling degree days 0 0  
Moisture  
Dew Point 21 °F    
Average Humidity 74    
Maximum Humidity 91    
Minimum Humidity 56    
Precipitation  
Precipitation 0.00 in 0.11 in 2.50 in (1918)
Month to date precipitation 1.45 1.54  
Year to date precipitation 1.45 1.54  
Snow  
Snow 0.00 in 0.10 in 3.50 in (1968)
Month to date snowfall T 1.0  
Since 1 July snowfall 0.3 1.6  
Snow Depth 0.00 in    
Sea Level Pressure  
Sea Level Pressure 30.38 in    
Wind  
Wind Speed 4 mph (ENE)    
Max Wind Speed 9 mph    
Max Gust Speed 12 mph    
Visibility 10 miles    
Events      
T = Trace of Precipitation, MM = Missing Value Source: NWS Daily Summary

Daily Weather History Graph

Daily Weather History Graph

Search for Another Location

Airport or City:

Trip Planner

Search our weather history database for the weather conditions in past years. The results will help you decide how hot, cold, wet, or windy it might be!

Date:

Astronomy

Jan. 14, 2015 Rise Set
Actual Time 7:12 AM CST 5:11 PM CST
Civil Twilight 6:44 AM CST 5:39 PM CST
Nautical Twilight 6:13 AM CST 6:10 PM CST
Astronomical Twilight 5:42 AM CST 6:41 PM CST
Moon 1:10 AM CST (1/14) 12:21 PM CST (1/14)
Length of Visible Light 10h 54m
Length of Day
9h 58m
Last Quarter, 37% of the Moon is Illuminated
Jan 14
Last Quarter
Jan 20
New
Jan 26
First Quarter
Feb 3
Full
Feb 11
Last Quarter

Hourly Weather History & Observations

Time (CST) Temp. Windchill Dew Point Humidity Pressure Visibility Wind Dir Wind Speed Gust Speed Precip Events Conditions
12:53 AM 21.0 °F 14.6 °F 17.1 °F 85% 30.45 in 10.0 mi NNE 4.6 mph - N/A   Clear
1:53 AM 21.0 °F 14.6 °F 17.1 °F 85% 30.45 in 10.0 mi North 4.6 mph - N/A   Clear
4:53 AM 19.9 °F 12.1 °F 17.1 °F 89% 30.43 in 10.0 mi North 5.8 mph - N/A   Clear
5:53 AM 21.0 °F 16.2 °F 17.1 °F 85% 30.44 in 10.0 mi North 3.5 mph - N/A   Clear
6:53 AM 21.0 °F 14.6 °F 17.1 °F 85% 30.44 in 10.0 mi North 4.6 mph - N/A   Clear
7:53 AM 21.2 °F - 17.6 °F 86% 30.44 in 10.0 mi Calm Calm - N/A   Clear
8:53 AM 24.1 °F 15.2 °F 17.1 °F 75% 30.47 in 10.0 mi NE 8.1 mph - N/A   Clear
9:53 AM 27.0 °F 19.5 °F 18.0 °F 69% 30.45 in 10.0 mi ENE 6.9 mph - N/A   Clear
10:53 AM 28.9 °F 21.9 °F 19.9 °F 69% 30.43 in 10.0 mi ENE 6.9 mph - N/A   Clear
11:53 AM 30.0 °F 23.2 °F 19.9 °F 66% 30.39 in 10.0 mi East 6.9 mph - N/A   Clear
12:53 PM 33.1 °F 26.9 °F 21.0 °F 61% 30.37 in 10.0 mi East 6.9 mph - N/A   Clear
1:53 PM 34.0 °F 29.8 °F 21.0 °F 59% 30.35 in 10.0 mi SE 4.6 mph - N/A   Clear
2:53 PM 35.1 °F 31.0 °F 21.9 °F 59% 30.33 in 10.0 mi ESE 4.6 mph - N/A   Clear
3:53 PM 34.0 °F 29.8 °F 21.9 °F 61% 30.32 in 10.0 mi ESE 4.6 mph - N/A   Clear
4:53 PM 32.0 °F 28.7 °F 23.0 °F 69% 30.30 in 10.0 mi East 3.5 mph - N/A   Clear
5:53 PM 32.0 °F 28.7 °F 24.1 °F 73% 30.32 in 10.0 mi East 3.5 mph - N/A   Overcast
6:53 PM 32.0 °F 28.7 °F 25.0 °F 75% 30.32 in 10.0 mi East 3.5 mph - N/A   Overcast
7:53 PM 30.9 °F 27.5 °F 24.1 °F 76% 30.32 in 10.0 mi ESE 3.5 mph - N/A   Mostly Cloudy
8:53 PM 30.0 °F - 25.0 °F 82% 30.32 in 10.0 mi Calm Calm - N/A   Clear
9:53 PM 30.0 °F 26.5 °F 26.1 °F 85% 30.31 in 10.0 mi East 3.5 mph - N/A   Clear
10:53 PM 30.0 °F - 26.1 °F 85% 30.31 in 10.0 mi Calm Calm - N/A   Clear
11:53 PM 28.9 °F - 26.1 °F 89% 30.30 in 10.0 mi Calm Calm - N/A   Clear